Flag for China Weather past 2 weeks in Suzhou, Jiangsu, China

Now
66 °F

Sprinkles. Passing clouds.


Feels Like: 66 °F
Forecast: 65 / 67 °F
Wind: 8 mph from Southeast

Location: Shanghai Hongqiao Airport

Current Time: Jul 5, 2015 at 10:19:45 PM

Latest Report: Jul 5, 2015 at 10:00 PM


Visibility: N/A

Pressure: 29.86 "Hg

Humidity: 88%

Dew point: 63 °F

Location of SuzhouLocation

Historic Weather in Suzhou — Graph

°F

Suzhou temperature yesterday

Maximum temperature yesterday: 75 °F (at 12:00 AM)
Minimum temperature yesterday: 68 °F (at 8:30 PM)
Average temperature yesterday: 72 °F

Past Weeks' High & Low Weather Summary

 TemperatureHumidityPressure
High97 °F (Jun 25, 11:00 AM)100% (Jun 22, 8:30 AM)29.86 "Hg (Jun 22, 8:30 AM)
Low66 °F (Jul 1, 6:30 AM)51% (Jul 3, 12:30 PM)29.42 "Hg (Jun 30, 2:00 PM)
Average76 °F84%29.67 "Hg
* Reported Jun 20 9:00 PM — Jul 5 9:00 PM, Suzhou, Weather by CustomWeather, © 2015

Note: Actual official high and low records may vary slightly from our data, if they occured in-between our weather recording intervals... More about our weather records

Advertising

Suzhou weather history for previous 24 hours

 ConditionsComfort  
Time TempWeatherWind HumidityBarometerVisibility
9:00 PM
Sun, Jul 5
68 °FSprinkles. Passing clouds.3 mph88%29.83 "HgN/A
8:30 PM68 °FSprinkles. Passing clouds.3 mph88%29.86 "HgN/A
8:00 PM68 °FSprinkles. Passing clouds.3 mph88%29.86 "HgN/A
7:30 PM68 °FSprinkles. Passing clouds.6 mph88%29.83 "HgN/A
7:00 PM68 °FSprinkles. Scattered clouds.6 mph88%29.83 "HgN/A
6:30 PM70 °FSprinkles. Scattered clouds.3 mph83%29.83 "HgN/A
6:00 PM70 °FSprinkles. Scattered clouds.3 mph83%29.83 "HgN/A
5:30 PM72 °FSprinkles. Partly sunny.6 mph78%29.83 "HgN/A
5:00 PM72 °FSprinkles. Partly sunny.8 mph78%29.80 "HgN/A
4:30 PM73 °FPartly sunny.10 mph69%29.80 "HgN/A
4:00 PM73 °FPartly sunny.8 mph74%29.83 "HgN/A
3:30 PM73 °FPartly sunny.10 mph74%29.80 "HgN/A
3:00 PM73 °FScattered clouds.10 mph74%29.83 "HgN/A
2:30 PM73 °FPassing clouds.13 mph74%29.83 "HgN/A
2:00 PM75 °FPassing clouds.8 mph69%29.83 "HgN/A
1:30 PM73 °FScattered clouds.8 mph74%29.83 "HgN/A
1:00 PM73 °FScattered clouds.8 mph74%29.83 "HgN/A
12:30 PM73 °FScattered clouds.10 mph74%29.83 "HgN/A
11:30 AM73 °FSprinkles. Passing clouds.10 mph78%29.83 "HgN/A
11:00 AM72 °FSprinkles. Scattered clouds.8 mph83%29.83 "HgN/A
10:30 AM73 °FSprinkles. Scattered clouds.8 mph74%29.86 "HgN/A
10:00 AM73 °FScattered clouds.10 mph74%29.86 "HgN/A
9:30 AM73 °FLight rain. Scattered clouds.6 mph74%29.86 "HgN/A
9:00 AM73 °FLight rain. Scattered clouds.8 mph74%29.86 "HgN/A
8:30 AM73 °FScattered clouds.8 mph74%29.86 "HgN/A
8:00 AM72 °FPassing clouds.6 mph83%29.86 "HgN/A
7:30 AM72 °FSunny.6 mph78%29.86 "Hg10 mi
7:00 AM72 °FSunny.3 mph78%29.86 "Hg10 mi
6:30 AM72 °FSunny.6 mph78%29.83 "Hg10 mi
6:00 AM70 °FSunny.3 mph83%29.83 "Hg10 mi
5:30 AM70 °FSunny.3 mph88%29.83 "Hg10 mi
5:00 AM70 °FSunny.3 mph88%29.83 "Hg10 mi
4:30 AM70 °FClear.3 mph88%29.83 "Hg10 mi
4:00 AM70 °FClear.1 mph88%29.83 "Hg10 mi
3:30 AM70 °FClear.3 mph83%29.83 "Hg10 mi
3:00 AM70 °FPassing clouds.1 mph83%29.83 "HgN/A
2:30 AM70 °FPassing clouds.1 mph83%29.83 "HgN/A
2:00 AM70 °FPassing clouds.1 mph83%29.83 "HgN/A
1:30 AM70 °FPassing clouds.3 mph83%29.83 "HgN/A
1:00 AM70 °FClear.6 mph83%29.83 "Hg10 mi
12:30 AM70 °FPassing clouds.No wind83%29.86 "HgN/A
12:00 AM70 °FClear.No wind83%29.83 "Hg10 mi
11:30 PM
Sat, Jul 4
70 °FClear.3 mph83%29.83 "Hg10 mi
11:00 PM68 °FClear.No wind88%29.83 "Hg10 mi
10:30 PM68 °FClear.1 mph88%29.86 "Hg10 mi
10:00 PM68 °FClear.1 mph88%29.86 "Hg10 mi
Weather by CustomWeather, © 2015

See weather overviewHow to use our weather pages